Regional Weather Roundup
Issued by NWS Upton, NY

Current Version | Previous Version | Text Only | Print | Product List | Glossary On
Versions: 1 2 3 4 5 6 7 8 9 10 11 12 13 14 15 16 17 18 19 20 21 22 23 24 25 26
000 ASUS41 KOKX 190108 RWROKX REGIONAL WEATHER ROUNDUP NATIONAL WEATHER SERVICE NEW YORK NY 800 PM EST WED JAN 18 2017 NOTE: "FAIR" INDICATES FEW OR NO CLOUDS BELOW 12,000 FEET WITH NO SIGNIFICANT WEATHER AND/OR OBSTRUCTIONS TO VISIBILITY. NYZ071-072-176-178-NJZ106-104-190200- NEW YORK CITY METRO AREA CITY SKY/WX TMP DP RH WIND PRES REMARKS Central Park CLOUDY 40 36 86 NE3 30.05F Wall St Helipt CLOUDY 42 37 82 VRB6 30.04F Bronx Bot Gard NOT AVBL LaGuardia APRT CLOUDY 42 37 82 N7 30.03F Kennedy INTL CLOUDY 41 36 82 N9 30.05R Breezy Point NOT AVBL Newark/Liberty MOCLDY 41 36 82 N7 30.04F Teterboro CLOUDY 42 36 79 N5 30.03F $$ NYZ177-179-078>081-190200- LONG ISLAND NEW YORK CITY SKY/WX TMP DP RH WIND PRES REMARKS Jones Beach NOT AVBL Matinecock PT NOT AVBL Farmingdale CLOUDY 40 37 89 N7 30.03S MacArthur/ISP CLOUDY 39 37 92 N10 30.03R WCI 32 Shirley CLOUDY 38 37 97 N12 30.03S WCI 30 Westhampton CLOUDY 39 36 89 N9 30.03R WCI 33 Southampton NOT AVBL Bridgehampton NOT AVBL East Hampton CLOUDY 38 37 97 N8 30.01S FOG WCI 32 Montauk N/A 41 40 96 N9 30.02R $$ NYZ052-065-067-190200- HUDSON VALLEY CITY SKY/WX TMP DP RH WIND PRES REMARKS White Plains MOCLDY 39 36 89 N6 30.01F WCI 35 Newburgh CLOUDY 37 37 100 CALM 30.04F Montgomery CLOUDY 36 34 92 CALM 30.01F Poughkeepsie CLOUDY 36 36 100 CALM 30.03F FOG Albany DRZL/FOG 37 34 89 S5 30.03F VSB 1 WCI 33 $$ NJZ001-105-106-008-010-013-015-019>022-104-190200- NEW JERSEY CITY SKY/WX TMP DP RH WIND PRES REMARKS Newark/Liberty MOCLDY 41 36 82 N7 30.04F Teterboro CLOUDY 42 36 79 N5 30.03F Caldwell CLOUDY 40 36 86 NE3 30.03F Somerville CLOUDY 40 37 89 CALM 30.02F Linden CLOUDY 41 36 81 CALM 30.04F Sussex CLOUDY 37 36 96 CALM 30.03S Andover N/A 35 35 100 CALM 30.03S Trenton CLOUDY 42 38 85 N3 30.04R Millville CLOUDY 46 42 86 N7 30.03F Atlantic City CLOUDY 43 38 82 N8 30.03S Wrightstown MOCLDY 41 37 83 N7 30.00F Toms River CLOUDY 40 39 97 N3 30.04S Belmar MOCLDY 40 37 89 N6 30.03F $$ PAZ047>061-062-071-190200- EASTERN PENNSYLVANIA CITY SKY/WX TMP DP RH WIND PRES REMARKS Philadelphia CLOUDY 46 39 76 N9 30.04F Allentown CLOUDY 42 38 85 CALM 30.03F Scranton CLOUDY 39 38 96 CALM 30.01F $$ CTZ002-004>006-009-010-012-RIZ004-006-007-MAZ004-011-015-190200- SOUTHERN NEW ENGLAND IN CT CITY SKY/WX TMP DP RH WIND PRES REMARKS Bradley INTL DRIZZLE 35 33 92 N6 30.05S WCI 30 Hartford CLOUDY 36 34 92 N6 30.05S WCI 31 Danbury LGT RAIN 37 34 89 CALM 30.03F Wtrbury/Oxford CLOUDY 36 30 80 N7 30.03R WCI 30 Bridgeport LGT RAIN 41 35 79 N6 30.04R Meriden LGT RAIN 38 33 82 N7 30.05R WCI 33 New Haven CLOUDY 38 35 89 N8 30.04R WCI 32 Chester CLOUDY 37 36 93 N7 30.02R FOG WCI 32 Groton CLOUDY 38 35 89 N8 30.02R WCI 32 Wilimantic CLOUDY 37 35 92 N3 30.04S IN RI CITY SKY/WX TMP DP RH WIND PRES REMARKS Providence CLOUDY 36 35 96 N8 30.03R FOG WCI 30 Block Island NOT AVBL Westerly CLOUDY 41 37 86 N6 30.02R IN MA CITY SKY/WX TMP DP RH WIND PRES REMARKS Boston LGT RAIN 34 34 100 N8 30.05S FOG WCI 27 Worcester FOG 30 29 96 N8 30.01R VSB 1/4 WCI 22 Westfield MIX PCPN 34 33 96 N6 30.05R WCI 29 Provincetown CLOUDY 40 34 79 E10 30.02R WCI 33 Nantucket CLOUDY 41 39 93 NE15G22 29.95S FOG $$ ANZ330-335-338-340-345-350-353-355-190200- COASTAL MARINE OBSERVATIONS STATION/POSITION TIME SKY/WX TEMP WIND PRES VSBY WAVE AIR SEA DIR/SP/G HT/PER (UTC) (F) (DEG/KT/KT) (MB) (MI) (FT/S) NY HARB ENTRANCE 2350 42 44 360/ 14/ 16 1016.6 4/ 7 20 S FIRE ISLAND 2350 41 45 360/ 17/ 19 1015.7 6/ 7 GREAT SOUTH BAY NOT AVBL 23 SSW MONTAUK P 2350 44 46 30/ 19/ 21 1015.2 7/ 8 15 E BARNEGAT LI 0030 47 N/A 6/ 7 HUDSON CANYON 2350 48 53 1013.5 7/ 8 KINGS POINT 0030 39 38 1017.1 EXECUTION ROCKS 0045 40 340/ 4/ 6 N/A CENTRAL LI SOUND 0015 39 360/ 12/ 14 N/A 1/ 2 EASTERN LI SOUND NOT AVBL ROBBINS REEF 0030 41 360/ 7/ 8 1017.5 $$ >>>>>>>>>>>>>>>>>>>>>>>>>>>> KEY <<<<<<<<<<<<<<<<<<<<<<<<<<< > < > SKY/WX - Sky Condition/Present Weather < > TMP - Temperature in Fahrenheit < > DP - Dew Point in Fahrenheit < > RH - Relative Humidity in Percent < > WIND - Direction (from) and Speed in MPH < > PRES - Mean Sea Level Pressure (inches of Hg) < > WCI - Wind Chill Index < > VSB - VISIBILITY IN MILES < > HX - HEAT INDEX < > TC - TEMPERATURE IN CELSIUS < > VRB - VARIABLE WIND DIRECTION < > < >>>>>>>>>>>>>>>>>>>>>>>>>>>> KEY <<<<<<<<<<<<<<<<<<<<<<<<<<<

USA.gov is the U.S. government's official web portal to all federal, state and local government web resources and services.